Weather History for Smyrna, TN

Change the Weather History Date:

Monday, December 26, 2011

  Actual Average Record
Temperature  
Mean Temperature 36 °F -  
Max Temperature 46 °F 44 °F 65 °F (2008)
Min Temperature 26 °F 31 °F 14 °F (2001)
Degree Days  
Heating Degree Days 29    
Moisture  
Dew Point 32 °F    
Average Humidity 77    
Maximum Humidity 93    
Minimum Humidity 52    
Precipitation  
Precipitation 0.27 in - - ()
Sea Level Pressure  
Sea Level Pressure 30.18 in    
Wind  
Wind Speed 2 mph (SE)    
Max Wind Speed 14 mph    
Max Gust Speed -    
Visibility 8 miles    
Events Rain    
Averages and records for this station are not official NWS values.
T = Trace of Precipitation, MM = Missing Value Source: NWS Daily Summary

Daily Weather History Graph

Daily Weather History Graph

Search for Another Location

Airport:

Trip Planner

Search our weather history database for the weather conditions in past years. The results will help you decide how hot, cold, wet, or windy it might be!

Date:

Astronomy

Dec. 26, 2011 Rise Set
Actual Time 6:54 AM CST 4:38 PM CST
Civil Twilight 6:26 AM CST 5:06 PM CST
Nautical Twilight 5:54 AM CST 5:38 PM CST
Astronomical Twilight 5:23 AM CST 6:10 PM CST
Moon 8:17 AM CST (12/26) 7:01 PM CST (12/26)
Length of Visible Light 10h 40m
Length of Day
9h 43m
Waxing Crescent, 5% of the Moon is Illuminated
Dec 26
Waxing Crescent
Jan 1
First Quarter
Jan 9
Full
Jan 16
Last Quarter
Jan 23
New

Hourly Weather History & Observations

Time (CST) Temp. Windchill Dew Point Humidity Pressure Visibility Wind Dir Wind Speed Gust Speed Precip Events Conditions
12:56 AM 26.1 °F - 24.1 °F 92% 30.37 in 10.0 mi Calm Calm - N/A   Clear
2:56 AM 27.1 °F - 25.2 °F 92% 30.38 in 10.0 mi Calm Calm - N/A   Clear
3:56 AM 26.1 °F - 24.1 °F 92% 30.37 in 10.0 mi Calm Calm - N/A   Clear
4:56 AM 26.1 °F - 24.1 °F 92% 30.37 in 10.0 mi Calm Calm - N/A   Clear
6:56 AM 26.1 °F - 23.0 °F 88% 30.39 in 10.0 mi Calm Calm - N/A   Clear
7:56 AM 30.0 °F - 28.0 °F 92% 30.37 in 10.0 mi Calm Calm - N/A   Clear
8:56 AM 36.0 °F 32.1 °F 32.0 °F 86% 30.35 in 10.0 mi NNE 4.6 mph - N/A   Clear
9:56 AM 39.9 °F - 31.1 °F 71% 30.35 in 10.0 mi Calm Calm - N/A   Clear
10:56 AM 43.0 °F - 32.0 °F 65% 30.30 in 10.0 mi Calm Calm - N/A   Clear
11:56 AM 43.9 °F - 32.0 °F 63% 30.26 in 10.0 mi Calm Calm - N/A   Clear
12:56 PM 45.9 °F 42.9 °F 30.0 °F 54% 30.20 in 10.0 mi ESE 5.8 mph - N/A   Clear
1:56 PM 46.9 °F - 30.0 °F 52% 30.16 in 10.0 mi South 3.5 mph - N/A   Clear
2:56 PM 45.9 °F 44.6 °F 32.0 °F 58% 30.16 in 10.0 mi SW 3.5 mph - N/A   Clear
3:56 PM 45.0 °F - 32.0 °F 60% 30.15 in 10.0 mi Calm Calm - N/A   Clear
4:56 PM 43.0 °F - 32.9 °F 68% 30.15 in 10.0 mi Calm Calm - N/A   Clear
5:56 PM 43.9 °F 39.9 °F 32.0 °F 63% 30.09 in 10.0 mi ESE 6.9 mph - N/A   Mostly Cloudy
6:56 PM 43.9 °F 42.3 °F 32.0 °F 63% 30.03 in 10.0 mi NE 3.5 mph - N/A   Overcast
8:56 PM 41.0 °F 34.3 °F 36.9 °F 85% 29.99 in 6.0 mi SSE 11.5 mph - 0.05 in Rain Light Rain
9:56 PM 43.0 °F 36.0 °F 38.8 °F 85% 29.97 in 4.0 mi South 13.8 mph - 0.13 in Rain Light Rain
10:24 PM 42.8 °F 37.0 °F 39.2 °F 87% 29.98 in 2.5 mi South 10.4 mph - 0.07 in Rain Light Rain
10:32 PM 42.8 °F 38.0 °F 39.2 °F 87% 29.96 in 2.5 mi SSE 8.1 mph - 0.11 in Rain Rain
10:39 PM 42.8 °F 38.0 °F 39.2 °F 87% 29.95 in 3.0 mi SSE 8.1 mph - 0.12 in Rain Rain
11:56 PM 43.0 °F 37.7 °F 41.0 °F 93% 29.85 in 4.0 mi SSE 9.2 mph - 0.09 in Rain Light Rain